SAS4087 ENEV-ENGM

Flight info

Callsign SAS4087
Flight time 0h 43m
Altitude 38000
Route GEPTU DCT SOMUB DCT BELGU
Aircraft A320/M-SDE3FGHIRWY/LB1

Departure

Time 2026-05-01 12:05
Airport Harstad/Narvik Airport (ENEV)

Arrival

Time 2026-05-01 12:49
Airport Oslo-Gardermoen International Airport (ENGM)
Time Latitude Longitude Altitude Speed Heading
2026-05-01 11:44 68.48986 16.68813 92 ft 0 kts 358°
2026-05-01 11:55 68.48979 16.68814 91 ft 4 kts 358°
2026-05-01 11:55 68.48952 16.68817 91 ft 4 kts 358°
2026-05-01 11:56 68.48925 16.68820 92 ft 4 kts 358°
2026-05-01 11:56 68.48904 16.68822 91 ft 0 kts 358°
2026-05-01 12:00 68.48907 16.68790 94 ft 4 kts 263°
2026-05-01 12:00 68.48894 16.68636 94 ft 9 kts 267°
2026-05-01 12:00 68.48897 16.68246 89 ft 10 kts 301°
2026-05-01 12:01 68.48962 16.68202 91 ft 10 kts 358°
2026-05-01 12:01 68.49025 16.68194 90 ft 8 kts 357°
2026-05-01 12:01 68.49090 16.68187 88 ft 13 kts 358°
2026-05-01 12:01 68.49216 16.68174 88 ft 23 kts 358°
2026-05-01 12:02 68.49372 16.68155 86 ft 21 kts 358°
2026-05-01 12:02 68.49516 16.68139 74 ft 23 kts 358°
2026-05-01 12:02 68.49701 16.68118 67 ft 29 kts 357°
2026-05-01 12:02 68.49900 16.68096 66 ft 27 kts 358°
2026-05-01 12:03 68.50077 16.68078 66 ft 24 kts 358°
2026-05-01 12:03 68.50218 16.68063 82 ft 17 kts 358°
2026-05-01 12:03 68.50312 16.68051 84 ft 10 kts 356°
2026-05-01 12:03 68.50370 16.67974 89 ft 9 kts 309°
2026-05-01 12:04 68.50383 16.67829 92 ft 9 kts 267°
2026-05-01 12:04 68.50363 16.67680 94 ft 8 kts 203°
2026-05-01 12:04 68.50327 16.67683 93 ft 0 kts 177°
2026-05-01 12:05 68.50242 16.67692 91 ft 44 kts 178°
2026-05-01 12:05 68.48795 16.67860 242 ft 142 kts 184°
2026-05-01 12:05 68.47810 16.67974 946 ft 142 kts 185°
2026-05-01 12:06 68.46805 16.68081 1527 ft 154 kts 184°
2026-05-01 12:06 68.45656 16.68181 1865 ft 176 kts 184°
2026-05-01 12:06 68.44363 16.68228 2186 ft 194 kts 192°
2026-05-01 12:06 68.43218 16.66554 2702 ft 190 kts 237°
2026-05-01 12:07 68.42951 16.63140 3482 ft 192 kts 278°
2026-05-01 12:07 68.43345 16.59680 4338 ft 190 kts 276°
2026-05-01 12:07 68.43245 16.56203 5148 ft 184 kts 253°
2026-05-01 12:07 68.42840 16.52931 6019 ft 182 kts 249°
2026-05-01 12:08 68.42388 16.49740 6825 ft 181 kts 248°
2026-05-01 12:08 68.41931 16.46492 7409 ft 193 kts 249°
2026-05-01 12:08 68.41436 16.42875 7757 ft 216 kts 249°
2026-05-01 12:08 68.40905 16.38895 8344 ft 229 kts 249°
2026-05-01 12:09 68.40277 16.34910 9236 ft 231 kts 239°
2026-05-01 12:09 68.39262 16.31490 10061 ft 237 kts 226°
2026-05-01 12:09 68.37972 16.28404 10458 ft 259 kts 225°
2026-05-01 12:09 68.36562 16.25043 10841 ft 279 kts 225°
2026-05-01 12:10 68.35074 16.21517 11549 ft 286 kts 225°
2026-05-01 12:10 68.32027 16.14334 13073 ft 294 kts 225°
2026-05-01 12:10 68.30475 16.10683 13789 ft 298 kts 225°
2026-05-01 12:11 68.27172 16.03622 15084 ft 307 kts 223°
2026-05-01 12:11 68.25455 16.00162 15734 ft 310 kts 223°
2026-05-01 12:11 68.23713 15.96682 16384 ft 313 kts 223°
2026-05-01 12:12 68.21978 15.93203 17039 ft 317 kts 223°
2026-05-01 12:12 68.20182 15.89584 17680 ft 320 kts 224°
2026-05-01 12:12 68.18398 15.85979 18277 ft 324 kts 224°
2026-05-01 12:12 68.16616 15.82377 18853 ft 326 kts 224°
2026-05-01 12:13 68.14793 15.78693 19475 ft 329 kts 224°
2026-05-01 12:13 68.12959 15.74993 20111 ft 331 kts 225°
2026-05-01 12:13 68.11043 15.71456 20683 ft 341 kts 218°
2026-05-01 12:13 68.08856 15.68743 21200 ft 350 kts 213°
2026-05-01 12:14 68.07342 15.67013 21544 ft 351 kts 213°
2026-05-01 12:14 68.01651 15.60525 22908 ft 358 kts 213°
2026-05-01 12:14 67.97039 15.55276 23865 ft 363 kts 213°
2026-05-01 12:14 67.92359 15.49977 24761 ft 368 kts 213°
2026-05-01 12:15 67.87628 15.44649 25668 ft 371 kts 213°
2026-05-01 12:15 67.82848 15.39290 26445 ft 375 kts 213°
2026-05-01 12:15 67.79594 15.35667 26791 ft 377 kts 212°
2026-05-01 12:15 67.74733 15.30736 27581 ft 382 kts 210°
2026-05-01 12:16 67.69694 15.26025 28371 ft 386 kts 209°
2026-05-01 12:16 67.60360 15.17351 29777 ft 392 kts 210°
2026-05-01 12:16 67.49850 15.07476 30817 ft 401 kts 210°
2026-05-01 12:16 67.39383 14.97747 31885 ft 405 kts 209°
2026-05-01 12:17 67.28776 14.88022 33235 ft 404 kts 209°
2026-05-01 12:17 67.18187 14.78370 34457 ft 404 kts 208°
2026-05-01 12:17 67.07545 14.68751 35398 ft 407 kts 207°
2026-05-01 12:17 66.96835 14.59196 36271 ft 409 kts 207°
2026-05-01 12:18 66.86056 14.49669 37066 ft 411 kts 206°
2026-05-01 12:18 66.77268 14.41941 37719 ft 411 kts 206°
2026-05-01 12:18 66.74567 14.39578 37905 ft 411 kts 206°
2026-05-01 12:18 66.70531 14.36058 37954 ft 412 kts 206°
2026-05-01 12:19 66.48798 14.17311 37944 ft 416 kts 205°
2026-05-01 12:19 66.35701 14.06203 37989 ft 414 kts 205°
2026-05-01 12:20 66.20758 13.93657 38011 ft 412 kts 205°
2026-05-01 12:20 66.11124 13.85637 38017 ft 412 kts 205°
2026-05-01 12:21 66.00248 13.76684 38030 ft 412 kts 205°
2026-05-01 12:21 65.80659 13.60769 38059 ft 413 kts 205°
2026-05-01 12:22 65.58850 13.43315 38038 ft 413 kts 205°
2026-05-01 12:22 65.37013 13.26158 38052 ft 412 kts 205°
2026-05-01 12:23 65.15075 13.09224 38096 ft 416 kts 205°
2026-05-01 12:23 64.93135 12.92595 38083 ft 412 kts 205°
2026-05-01 12:24 64.71325 12.76323 38069 ft 411 kts 205°
2026-05-01 12:24 64.49558 12.60346 38093 ft 409 kts 205°
2026-05-01 12:25 64.16913 12.36894 38106 ft 410 kts 205°
2026-05-01 12:26 63.95155 12.21613 38096 ft 409 kts 205°
2026-05-01 12:26 63.62619 11.99174 38082 ft 409 kts 205°
2026-05-01 12:27 63.29860 11.77306 38043 ft 412 kts 203°
2026-05-01 12:28 62.96625 11.57519 38050 ft 412 kts 203°
2026-05-01 12:29 62.63182 11.37937 38044 ft 416 kts 202°
2026-05-01 12:29 62.30176 11.19082 38065 ft 419 kts 202°
2026-05-01 12:30 62.17326 11.11837 37319 ft 421 kts 202°
2026-05-01 12:30 62.11654 11.08672 35949 ft 421 kts 202°
2026-05-01 12:31 62.05981 11.05535 34803 ft 416 kts 202°
2026-05-01 12:31 62.00437 11.02481 33726 ft 407 kts 202°
2026-05-01 12:31 61.95027 10.99483 32755 ft 397 kts 202°
2026-05-01 12:31 61.89748 10.96567 31778 ft 388 kts 203°
2026-05-01 12:32 61.84580 10.93730 30856 ft 380 kts 203°
2026-05-01 12:32 61.74712 10.88357 29744 ft 344 kts 203°
2026-05-01 12:32 61.70187 10.85898 29163 ft 334 kts 204°
2026-05-01 12:33 61.65710 10.83445 28402 ft 331 kts 204°
2026-05-01 12:33 61.61329 10.81072 27664 ft 327 kts 204°
2026-05-01 12:33 61.56945 10.78708 26937 ft 324 kts 203°
2026-05-01 12:33 61.53786 10.77017 26419 ft 322 kts 203°
2026-05-01 12:34 61.51623 10.75858 26057 ft 320 kts 203°
2026-05-01 12:34 61.49464 10.74701 25636 ft 319 kts 202°
2026-05-01 12:34 61.47315 10.73549 25296 ft 318 kts 202°
2026-05-01 12:34 61.45175 10.72403 24905 ft 317 kts 202°
2026-05-01 12:35 61.41104 10.70228 24147 ft 314 kts 202°
2026-05-01 12:35 61.36885 10.67980 23292 ft 311 kts 202°
2026-05-01 12:35 61.32715 10.65772 22500 ft 307 kts 202°
2026-05-01 12:35 61.28590 10.63599 21725 ft 304 kts 202°
2026-05-01 12:36 61.24518 10.61458 20955 ft 300 kts 202°
2026-05-01 12:36 61.20280 10.60919 20092 ft 320 kts 177°
2026-05-01 12:36 61.15980 10.64202 19178 ft 334 kts 165°
2026-05-01 12:36 61.11642 10.67878 18247 ft 339 kts 166°
2026-05-01 12:37 61.07321 10.71522 17275 ft 330 kts 166°
2026-05-01 12:37 61.03080 10.75086 16443 ft 330 kts 166°
2026-05-01 12:37 60.98857 10.78619 15598 ft 324 kts 166°
2026-05-01 12:37 60.94773 10.82054 14771 ft 314 kts 166°
2026-05-01 12:38 60.90725 10.85443 14007 ft 313 kts 166°
2026-05-01 12:38 60.86743 10.88822 13219 ft 305 kts 166°
2026-05-01 12:38 60.82877 10.92104 12467 ft 298 kts 166°
2026-05-01 12:38 60.79053 10.95317 11715 ft 296 kts 166°
2026-05-01 12:39 60.76643 10.97320 11249 ft 293 kts 169°
2026-05-01 12:39 60.74702 10.98286 10888 ft 285 kts 178°
2026-05-01 12:39 60.72728 10.98984 10291 ft 286 kts 178°
2026-05-01 12:39 60.70781 10.99698 9841 ft 283 kts 177°
2026-05-01 12:40 60.68844 11.00416 9429 ft 282 kts 177°
2026-05-01 12:40 60.66914 11.01129 9018 ft 281 kts 177°
2026-05-01 12:40 60.65013 11.01826 8625 ft 282 kts 177°
2026-05-01 12:40 60.63092 11.02524 8224 ft 279 kts 177°
2026-05-01 12:41 60.61185 11.03213 7825 ft 278 kts 176°
2026-05-01 12:41 60.59284 11.03898 7429 ft 277 kts 176°
2026-05-01 12:41 60.57386 11.04582 7036 ft 276 kts 175°
2026-05-01 12:41 60.55499 11.05263 6643 ft 275 kts 175°
2026-05-01 12:42 60.53620 11.05937 6233 ft 273 kts 175°
2026-05-01 12:42 60.51796 11.06594 6122 ft 257 kts 175°
2026-05-01 12:42 60.50085 11.07219 6050 ft 244 kts 175°
2026-05-01 12:42 60.48437 11.07813 5950 ft 239 kts 175°
2026-05-01 12:43 60.46836 11.08731 5855 ft 243 kts 160°
2026-05-01 12:43 60.45425 11.10690 5493 ft 252 kts 141°
2026-05-01 12:43 60.44157 11.13169 5015 ft 249 kts 140°
2026-05-01 12:43 60.42949 11.15573 4640 ft 240 kts 140°
2026-05-01 12:44 60.41746 11.17684 4540 ft 218 kts 153°
2026-05-01 12:44 60.40416 11.18859 4387 ft 202 kts 171°
2026-05-01 12:44 60.37758 11.18556 3972 ft 190 kts 199°
2026-05-01 12:45 60.35189 11.17055 3482 ft 195 kts 199°
2026-05-01 12:45 60.33897 11.16300 3217 ft 191 kts 199°
2026-05-01 12:45 60.32650 11.15575 2980 ft 181 kts 198°
2026-05-01 12:46 60.31469 11.14889 2735 ft 173 kts 198°
2026-05-01 12:46 60.30360 11.14249 2518 ft 159 kts 199°
2026-05-01 12:46 60.29368 11.13676 2346 ft 144 kts 196°
2026-05-01 12:46 60.28424 11.13125 2100 ft 138 kts 198°
2026-05-01 12:47 60.27525 11.12600 1922 ft 134 kts 198°
2026-05-01 12:47 60.26639 11.12085 1737 ft 132 kts 198°
2026-05-01 12:47 60.25764 11.11577 1564 ft 131 kts 198°
2026-05-01 12:47 60.24892 11.11071 1427 ft 129 kts 199°
2026-05-01 12:48 60.24024 11.10571 1248 ft 130 kts 199°
2026-05-01 12:48 60.23139 11.10056 1067 ft 132 kts 198°
2026-05-01 12:48 60.22248 11.09544 852 ft 132 kts 199°
2026-05-01 12:48 60.21374 11.09036 699 ft 130 kts 199°
2026-05-01 12:49 60.20616 11.08593 677 ft 90 kts 195°
2026-05-01 12:49 60.20183 11.08345 676 ft 40 kts 195°
2026-05-01 12:49 60.20000 11.08300 676 ft 22 kts 175°
2026-05-01 12:49 60.19910 11.08376 675 ft 11 kts 133°
2026-05-01 12:50 60.19895 11.08434 675 ft 0 kts 107°
2026-05-01 12:50 60.19890 11.08469 676 ft 9 kts 107°
2026-05-01 12:51 60.19873 11.08583 678 ft 7 kts 105°
2026-05-01 12:51 60.19853 11.08674 678 ft 6 kts 135°
2026-05-01 12:51 60.19673 11.08614 678 ft 22 kts 196°
2026-05-01 12:52 60.19562 11.08555 678 ft 12 kts 181°
2026-05-01 12:52 60.19485 11.08888 684 ft 20 kts 107°
2026-05-01 12:52 60.19447 11.09152 683 ft 17 kts 105°
2026-05-01 12:53 60.19455 11.09331 685 ft 4 kts 18°
2026-05-01 12:53 60.19472 11.09342 681 ft 1 kts 17°
2026-05-01 12:53 60.19476 11.09344 682 ft 0 kts 17°
2026-05-01 12:54 60.19478 11.09346 685 ft 0 kts 17°